TimeEDT,TemperatureF,Dew PointF,Humidity,Sea Level PressureIn,VisibilityMPH,Wind Direction,Wind SpeedMPH,Gust SpeedMPH,PrecipitationIn,Events,Conditions,WindDirDegrees,DateUTC
12:15 AM,40.1,26.4,58,30.28,10.0,North,10.4,-,N/A,,Clear,10,2012-10-29 04:15:00
12:35 AM,40.1,26.2,58,30.28,10.0,North,8.1,-,N/A,,Clear,10,2012-10-29 04:35:00
12:55 AM,39.6,25.5,57,30.28,10.0,North,11.5,-,N/A,,Clear,10,2012-10-29 04:55:00
1:15 AM,39.4,25.2,57,30.29,10.0,North,8.1,-,N/A,,Clear,10,2012-10-29 05:15:00
1:35 AM,39.2,24.4,56,30.28,10.0,North,12.7,-,N/A,,Clear,10,2012-10-29 05:35:00
1:55 AM,38.7,24.6,57,30.28,10.0,North,10.4,-,N/A,,Clear,10,2012-10-29 05:55:00
2:15 AM,37.9,24.3,58,30.28,10.0,North,9.2,-,N/A,,Clear,360,2012-10-29 06:15:00
2:35 AM,37.8,23.9,57,30.28,10.0,North,10.4,-,N/A,,Clear,10,2012-10-29 06:35:00
2:55 AM,37.4,23.9,58,30.28,10.0,North,9.2,-,N/A,,Clear,360,2012-10-29 06:55:00
3:15 AM,37.4,23.4,57,30.28,10.0,North,10.4,16.1,N/A,,Clear,360,2012-10-29 07:15:00
3:35 AM,37.4,22.5,55,30.28,10.0,North,9.2,18.4,N/A,,Clear,360,2012-10-29 07:35:00
3:55 AM,37.2,22.5,55,30.27,10.0,North,12.7,18.4,N/A,,Clear,350,2012-10-29 07:55:00
4:15 AM,36.7,23.4,59,30.27,10.0,North,9.2,17.3,N/A,,Clear,350,2012-10-29 08:15:00
4:35 AM,36.0,23.7,61,30.26,10.0,North,12.7,16.1,N/A,,Clear,350,2012-10-29 08:35:00
4:55 AM,36.1,23.5,60,30.26,10.0,North,10.4,20.7,N/A,,Clear,350,2012-10-29 08:55:00
5:15 AM,35.6,23.4,61,30.27,10.0,North,8.1,16.1,N/A,,Clear,350,2012-10-29 09:15:00
5:35 AM,35.6,23.7,62,30.27,10.0,North,6.9,-,N/A,,Clear,350,2012-10-29 09:35:00
5:55 AM,35.6,24.1,63,30.27,10.0,North,9.2,-,N/A,,Clear,350,2012-10-29 09:55:00
6:15 AM,35.8,24.3,63,30.28,10.0,North,9.2,-,N/A,,Clear,350,2012-10-29 10:15:00
7:15 AM,35.6,24.8,65,30.28,10.0,North,9.2,-,N/A,,Clear,350,2012-10-29 11:15:00
7:35 AM,35.6,24.8,65,30.28,10.0,NNW,10.4,17.3,N/A,,Clear,340,2012-10-29 11:35:00
7:55 AM,35.8,25.3,66,30.28,10.0,North,9.2,17.3,N/A,,Clear,350,2012-10-29 11:55:00
8:14 AM,36.0,25.5,66,30.28,10.0,North,12.7,18.4,N/A,,Clear,350,2012-10-29 12:14:00
8:35 AM,36.0,26.1,67,30.28,10.0,North,12.7,-,N/A,,Clear,360,2012-10-29 12:35:00
8:55 AM,36.0,26.6,69,30.28,10.0,North,10.4,-,N/A,,Clear,350,2012-10-29 12:55:00
9:15 AM,36.5,26.4,67,30.28,10.0,North,10.4,19.6,N/A,,Clear,350,2012-10-29 13:15:00
9:35 AM,36.7,26.8,67,30.28,10.0,North,10.4,-,N/A,,Clear,350,2012-10-29 13:35:00
9:54 AM,37.4,27.1,66,30.28,10.0,North,12.7,18.4,N/A,,Clear,350,2012-10-29 13:54:00
10:15 AM,37.6,27.3,66,30.28,10.0,North,12.7,17.3,N/A,,Clear,350,2012-10-29 14:15:00
10:35 AM,38.1,27.3,65,30.27,10.0,North,12.7,18.4,N/A,,Clear,350,2012-10-29 14:35:00
10:55 AM,38.3,27.1,64,30.27,10.0,North,13.8,-,N/A,,Clear,350,2012-10-29 14:55:00
11:34 AM,39.7,27.5,62,30.27,10.0,North,15.0,19.6,N/A,,Clear,350,2012-10-29 15:34:00
11:55 AM,40.3,27.7,61,30.26,10.0,North,15.0,20.7,N/A,,Clear,10,2012-10-29 15:55:00
12:15 PM,41.0,27.3,58,30.26,10.0,North,11.5,19.6,N/A,,Clear,360,2012-10-29 16:15:00
12:35 PM,41.4,27.0,57,30.25,10.0,NNW,12.7,20.7,N/A,,Clear,340,2012-10-29 16:35:00
12:55 PM,41.9,26.4,54,30.24,10.0,North,16.1,19.6,N/A,,Clear,350,2012-10-29 16:55:00
1:35 PM,42.4,25.3,51,30.22,10.0,North,13.8,21.9,N/A,,Clear,350,2012-10-29 17:35:00
1:55 PM,42.4,25.2,50,30.22,10.0,NNW,12.7,-,N/A,,Clear,340,2012-10-29 17:55:00
2:15 PM,42.4,23.5,47,30.21,10.0,NNW,15.0,20.7,N/A,,Clear,340,2012-10-29 18:15:00
2:35 PM,42.8,22.6,45,30.21,10.0,NNW,16.1,21.9,N/A,,Clear,340,2012-10-29 18:35:00
2:55 PM,43.3,23.0,45,30.20,10.0,NNW,11.5,24.2,N/A,,Clear,340,2012-10-29 18:55:00
3:15 PM,43.2,24.1,47,30.18,10.0,NNW,15.0,20.7,N/A,,Clear,330,2012-10-29 19:15:00
3:35 PM,43.0,22.1,44,30.19,10.0,NNW,16.1,24.2,N/A,,Clear,340,2012-10-29 19:35:00
4:15 PM,43.0,22.1,44,30.18,10.0,North,15.0,24.2,N/A,,Clear,350,2012-10-29 20:15:00
4:35 PM,43.0,22.6,45,30.18,10.0,NNW,13.8,23.0,N/A,,Clear,340,2012-10-29 20:35:00
4:55 PM,42.8,21.6,43,30.17,10.0,NNW,17.3,24.2,N/A,,Clear,340,2012-10-29 20:55:00
5:14 PM,42.4,21.9,44,30.17,10.0,North,18.4,26.5,N/A,,Clear,350,2012-10-29 21:14:00
5:35 PM,42.1,22.1,45,30.16,10.0,NNW,17.3,24.2,N/A,,Clear,340,2012-10-29 21:35:00
5:55 PM,41.9,22.1,45,30.16,10.0,North,16.1,24.2,N/A,,Clear,350,2012-10-29 21:55:00
6:14 PM,41.5,20.8,44,30.16,10.0,North,19.6,26.5,N/A,,Clear,350,2012-10-29 22:14:00
6:35 PM,41.2,20.1,43,30.15,10.0,North,18.4,25.3,N/A,,Clear,350,2012-10-29 22:35:00
6:55 PM,41.2,19.6,42,30.15,10.0,North,18.4,25.3,N/A,,Clear,350,2012-10-29 22:55:00
7:15 PM,41.0,20.5,44,30.15,10.0,North,20.7,27.6,N/A,,Clear,350,2012-10-29 23:15:00
7:35 PM,41.0,19.0,41,30.14,10.0,North,21.9,28.8,N/A,,Clear,350,2012-10-29 23:35:00
7:55 PM,41.0,19.2,42,30.13,10.0,North,20.7,29.9,N/A,,Clear,350,2012-10-29 23:55:00
8:15 PM,40.5,18.9,42,30.13,10.0,North,17.3,24.2,N/A,,Clear,360,2012-10-30 00:15:00
8:35 PM,40.3,17.6,40,30.14,10.0,North,18.4,26.5,N/A,,Clear,360,2012-10-30 00:35:00
8:55 PM,40.5,18.7,42,30.13,10.0,North,17.3,27.6,N/A,,Clear,360,2012-10-30 00:55:00
9:15 PM,40.3,18.3,41,30.13,10.0,North,15.0,28.8,N/A,,Clear,360,2012-10-30 01:15:00
9:35 PM,40.1,18.5,42,30.12,10.0,North,17.3,28.8,N/A,,Clear,360,2012-10-30 01:35:00
9:55 PM,39.6,17.8,41,30.11,10.0,North,23.0,28.8,N/A,,Clear,360,2012-10-30 01:55:00
10:15 PM,39.2,18.1,43,30.11,10.0,North,17.3,29.9,N/A,,Clear,360,2012-10-30 02:15:00
10:35 PM,39.0,19.4,45,30.10,10.0,North,20.7,26.5,N/A,,Clear,360,2012-10-30 02:35:00
10:55 PM,38.5,20.1,48,30.09,10.0,North,20.7,24.2,N/A,,Clear,350,2012-10-30 02:55:00
11:15 PM,38.3,20.5,49,30.06,10.0,North,17.3,27.6,N/A,,Clear,350,2012-10-30 03:15:00
11:35 PM,37.8,21.4,52,30.05,10.0,North,21.9,31.1,N/A,,Clear,360,2012-10-30 03:35:00
11:55 PM,37.4,22.8,56,30.04,10.0,North,21.9,31.1,N/A,,Clear,350,2012-10-30 03:55:00